Weather History for Ft Lauderdale, FL

Change the Weather History Date:

Wednesday, May 1, 2013

  Actual Average Record
Temperature  
Mean Temperature 77 °F 78 °F  
Max Temperature 82 °F 84 °F 97 °F (1971)
Min Temperature 71 °F 72 °F 56 °F (1999)
Degree Days  
Heating Degree Days 0 0  
Month to date heating degree days 0 0  
Since 1 July heating degree days 85 112  
Cooling Degree Days 12 13  
Month to date cooling degree days 12 13  
Year to date cooling degree days 982 960  
Growing Degree Days 26 (Base 50)    
Moisture  
Dew Point 71 °F    
Average Humidity 84    
Maximum Humidity 93    
Minimum Humidity 74    
Precipitation  
Precipitation 2.70 in 0.06 in 2.70 in (2013)
Month to date precipitation 2.70 0.06  
Year to date precipitation 11.83 12.90  
Snow  
Snow 0.00 in - - ()
Month to date snowfall 0.0  
Since 1 July snowfall 0.0  
Snow Depth 0.00 in    
Sea Level Pressure  
Sea Level Pressure 29.95 in    
Wind  
Wind Speed 7 mph (ESE)    
Max Wind Speed 22 mph    
Max Gust Speed 24 mph    
Visibility 7 miles    
Events Fog , Rain , Thunderstorm    
T = Trace of Precipitation, MM = Missing Value Source: NWS Daily Summary

Daily Weather History Graph

Daily Weather History Graph

Search for Another Location

Airport:

Trip Planner

Search our weather history database for the weather conditions in past years. The results will help you decide how hot, cold, wet, or windy it might be!

Date:

Astronomy

May. 01, 2013 Rise Set
Actual Time 6:43 AM EDT 7:52 PM EDT
Civil Twilight 6:18 AM EDT 8:16 PM EDT
Nautical Twilight 5:50 AM EDT 8:45 PM EDT
Astronomical Twilight 5:20 AM EDT 9:15 PM EDT
Moon 12:59 AM EDT (5/1) 12:19 PM EDT (5/1)
Length of Visible Light 13h 57m
Length of Day
13h 09m
Waning Gibbous, 59% of the Moon is Illuminated
May 1
Waning Gibbous
May 2
Last Quarter
May 9
New
May 18
First Quarter
May 25
Full

Hourly Weather History & Observations

Time (EDT) Temp. Heat Index Dew Point Humidity Pressure Visibility Wind Dir Wind Speed Gust Speed Precip Events Conditions
12:53 AM 73.0 °F - 70.0 °F 90% 29.98 in 10.0 mi Calm Calm - N/A   Clear
1:53 AM 73.0 °F - 70.0 °F 90% 29.96 in 10.0 mi SE 3.5 mph - N/A   Partly Cloudy
2:53 AM 73.9 °F - 71.1 °F 91% 29.94 in 10.0 mi SE 3.5 mph - N/A   Partly Cloudy
3:53 AM 73.9 °F - 71.1 °F 91% 29.93 in 10.0 mi ESE 3.5 mph - N/A   Scattered Clouds
4:13 AM 75.2 °F - 71.6 °F 89% 29.93 in 10.0 mi Calm Calm - N/A   Mostly Cloudy
4:29 AM 73.4 °F - 69.8 °F 88% 29.94 in 1.0 mi East 11.5 mph - 0.12 in Rain Heavy Rain
4:38 AM 73.4 °F - 68.0 °F 83% 29.93 in 3.0 mi East 8.1 mph - 0.25 in Rain Heavy Rain
4:47 AM 75.2 °F - 71.6 °F 89% 29.93 in 7.0 mi ENE 4.6 mph - 0.28 in Rain Light Rain
4:53 AM 75.0 °F - 72.0 °F 90% 29.94 in 7.0 mi East 4.6 mph - 0.30 in Rain Rain
5:05 AM 75.2 °F - 73.4 °F 94% 29.94 in 2.5 mi South 13.8 mph 20.7 mph 0.14 in Rain Heavy Rain
5:15 AM 71.6 °F - 66.2 °F 83% 29.93 in 1.5 mi SSE 12.7 mph 24.2 mph 0.29 in Rain Heavy Rain
5:30 AM 73.4 °F - 69.8 °F 88% 29.93 in 3.0 mi SSE 10.4 mph - 0.40 in Rain Heavy Rain
5:32 AM 73.4 °F - 69.8 °F 88% 29.94 in 3.0 mi SSE 9.2 mph - 0.40 in Rain Rain
5:53 AM 73.0 °F - 70.0 °F 90% 29.93 in 5.0 mi SSE 5.8 mph - 0.48 in Rain Light Rain
6:32 AM 73.4 °F - 71.6 °F 94% 29.95 in 8.0 mi South 6.9 mph - 0.00 in   Mostly Cloudy
6:48 AM 73.4 °F - 71.6 °F 94% 29.95 in 1.5 mi SSE 11.5 mph 21.9 mph 0.25 in Rain Heavy Rain
6:53 AM 73.0 °F - 70.0 °F 90% 29.96 in 0.8 mi Variable 4.6 mph - 0.51 in Rain Heavy Rain
6:57 AM 73.4 °F - 69.8 °F 88% 29.96 in 0.2 mi East 13.8 mph - 0.08 in Fog , Rain Heavy Rain
7:00 AM 73.4 °F - 69.8 °F 88% 29.96 in 0.8 mi ESE 6.9 mph 16.1 mph 0.13 in Rain Heavy Rain
7:03 AM 73.4 °F - 68.0 °F 83% 29.96 in 1.5 mi ESE 5.8 mph 16.1 mph 0.15 in Rain Heavy Rain
7:12 AM 73.4 °F - 69.8 °F 88% 29.96 in 7.0 mi East 5.8 mph - 0.20 in Rain Rain
7:53 AM 73.0 °F - 66.9 °F 81% 29.98 in 7.0 mi SSE 8.1 mph - 0.23 in Rain Light Rain
8:53 AM 78.1 °F - 72.0 °F 81% 29.97 in 10.0 mi SE 3.5 mph - 0.00 in   Mostly Cloudy
9:53 AM 80.1 °F 84.2 °F 73.0 °F 79% 29.99 in 10.0 mi ESE 9.2 mph - N/A   Scattered Clouds
10:53 AM 80.1 °F 83.8 °F 72.0 °F 76% 30.00 in 10.0 mi SE 9.2 mph - N/A   Scattered Clouds
11:53 AM 81.0 °F 85.2 °F 72.0 °F 74% 29.99 in 10.0 mi ESE 11.5 mph - N/A   Scattered Clouds
12:26 PM 82.4 °F 87.2 °F 71.6 °F 70% 29.98 in 10.0 mi ESE 12.7 mph - N/A   Mostly Cloudy
12:30 PM 82.4 °F 88.2 °F 73.4 °F 74% 29.98 in 10.0 mi SE 9.2 mph - N/A   Scattered Clouds
12:53 PM 82.0 °F 87.4 °F 73.0 °F 74% 29.98 in 10.0 mi SE 9.2 mph - N/A   Scattered Clouds
1:53 PM 82.0 °F 87.4 °F 73.0 °F 74% 29.95 in 10.0 mi ESE 12.7 mph - N/A   Partly Cloudy
2:53 PM 80.1 °F 83.8 °F 72.0 °F 76% 29.96 in 10.0 mi SSE 9.2 mph - N/A   Partly Cloudy
3:53 PM 79.0 °F - 73.0 °F 82% 29.94 in 9.0 mi ESE 5.8 mph - 0.01 in Rain Light Rain
4:38 PM 78.8 °F - 73.4 °F 83% 29.94 in 8.0 mi East 3.5 mph - 0.05 in Rain Light Rain
4:53 PM 77.0 °F - 73.0 °F 88% 29.94 in 4.0 mi Calm Calm - 0.07 in Rain Light Rain
4:56 PM 77.0 °F - 73.4 °F 89% 29.94 in 4.0 mi North 6.9 mph - 0.01 in Rain , Thunderstorm Thunderstorms and Rain
5:04 PM 75.2 °F - 73.4 °F 94% 29.96 in 2.0 mi WNW 13.8 mph 23.0 mph 0.10 in Rain , Thunderstorm Heavy Thunderstorms and Rain
5:10 PM 73.4 °F - 71.6 °F 94% 29.96 in 2.0 mi Variable 3.5 mph 23.0 mph 0.26 in Rain , Thunderstorm Heavy Thunderstorms and Rain
5:17 PM 73.4 °F - 71.6 °F 94% 29.95 in 4.0 mi NE 6.9 mph - 0.36 in Rain , Thunderstorm Thunderstorms and Rain
5:33 PM 73.4 °F - 71.6 °F 94% 29.92 in 5.0 mi ENE 8.1 mph - 0.40 in Rain , Thunderstorm Thunderstorms and Rain
5:44 PM 71.6 °F - 69.8 °F 94% 29.92 in 9.0 mi East 12.7 mph - 0.41 in Rain Light Rain
5:53 PM 72.0 °F - 69.1 °F 91% 29.92 in 10.0 mi ESE 9.2 mph - 0.42 in Rain Light Rain
6:53 PM 73.0 °F - 70.0 °F 90% 29.96 in 10.0 mi North 8.1 mph - N/A   Mostly Cloudy
7:53 PM 73.0 °F - 70.0 °F 90% 29.95 in 10.0 mi NNE 4.6 mph - N/A   Mostly Cloudy
8:53 PM 73.9 °F - 70.0 °F 87% 29.96 in 10.0 mi North 5.8 mph - N/A   Mostly Cloudy
9:53 PM 75.0 °F - 70.0 °F 84% 29.96 in 10.0 mi NE 3.5 mph - N/A   Partly Cloudy
10:33 PM 73.4 °F - 69.8 °F 88% 29.96 in 10.0 mi NNE 3.5 mph - N/A   Mostly Cloudy
10:44 PM 73.4 °F - 71.6 °F 94% 29.96 in 10.0 mi NE 6.9 mph - N/A   Scattered Clouds
10:53 PM 75.2 °F - 71.6 °F 89% 29.96 in 10.0 mi NE 6.9 mph - N/A   Scattered Clouds
11:53 PM 75.9 °F - 70.0 °F 82% 29.95 in 10.0 mi East 6.9 mph - 0.00 in Rain Light Rain